www.pogodaiklimat.ru

Погода и климат >> Архив погоды >> Австралия >> Северная территория >> Аэропорт Макартур Ривер Майн


ПОГОДА в Аэропорту Макартур Ривер Майн

  • Прогноз погоды в Аэропорту Макартур Ривер Майн
  • Монитор погоды в Аэропорту Макартур Ривер Майн

АРХИВ ПОГОДЫ в Аэропорту Макартур Ривер Майн

Время (UTC), дата Ветер
(напр.,м/с)
 
Видим.   Явления Облачность Т
(С)
Тd
(С)
f
(%)
Тe
(С)
Тes
(С)
Комфортность P
(гПа)
Po
(гПа)
Тmin
(С)
Tmax
(С)
R
(мм)
R24
(мм)
S
(см)
08 11.02 СВ 5 н/о 8/0
[]
+29.8 +22.3 64 +39 +39 очень
душно
1006.1 1001.5
11 11.02 З 3 н/о 5/0
[]
+26.8 +23.1 80 +36 +36 очень
душно
1008.2 1003.6
14 11.02 СВ 2 н/о 9/0
[]
+27.3 +22.9 77 +36 +36 очень
душно
1008.6 1004.0 +40.1
17 11.02 штиль 0 н/о 9/0
[]
+26.6 +23.9 85 +37 +37 очень
душно
1007.1 1002.5
20 11.02 С 2 н/о н/о +27.0 +23.5 81 +37 +37 очень
душно
1008.2 1003.6
23 11.02 С 3 н/о н/о +30.3 +25.1 74 +44 +44 опасность
перегрева
1009.9 1005.3
02 12.02 С 3 н/о 1/0
[]
+33.6 +24.5 59 +46 +46 опасность
перегрева
1009.1 1004.5 +26.5
05 12.02 С 4 н/о 3/0 2000 м
[]
+37.3 +19.3 35 +42 +42 опасность
перегрева
1006.1 1001.5
08 12.02 С 5 н/о 10/10 1000 м
[]
+35.3 +23.6 51 +46 +46 опасность
перегрева
1003.5 998.9
11 12.02 СЗ 4 н/о {туман} 10/0
[]
+26.8 +22.0 75 +35 +35 очень
душно
1008.5 1003.9 1
14 12.02 СЗ 3 н/о 8/0
[]
+26.2 +21.8 77 +34 +34 очень
душно
1008.4 1003.8 +38.7
17 12.02 ЮВ 1 н/о 10/0
[]
+25.6 +22.7 84 +34 +34 очень
душно
1007.1 1002.5
20 12.02 СЗ 2 н/о 8/0
[]
+26.0 +22.3 80 +34 +34 очень
душно
1008.4 1003.8
23 12.02 СЗ 3 н/о в посл. час дождь {туман} 4/0
[]
+29.5 +22.0 64 +38 +38 очень
душно
1009.7 1005.1 1
02 13.02 СВ 2 н/о н/о +33.8 +18.3 40 +38 +38 очень
душно
1009.1 1004.5 +24.3
05 13.02 СЗ 3 н/о н/о +39.6 +13.2 21 +40 +40 очень
душно
1006.4 1001.8
08 13.02 С 4 н/о 1/0
[]
+39.2 +5.7 13 +36 +36 очень
жарко
1005.4 1000.8
11 13.02 С 3 н/о 5/0
[]
+33.0 +19.1 44 +38 +38 очень
душно
1006.7 1002.1
14 13.02 С 2 н/о 10/0
[]
+30.4 +23.1 65 +41 +41 опасность
перегрева
1007.8 1003.2 +40.3
17 13.02 С 3 н/о 10/0
[]
+30.2 +22.9 65 +40 +40 очень
душно
1007.1 1002.5
20 13.02 С 2 н/о 10/0
[]
+30.0 +23.4 68 +41 +41 опасность
перегрева
1009.2 1004.6
23 13.02 Ю 4 н/о 1/0
[]
+32.6 +21.5 52 +41 +41 опасность
перегрева
1009.9 1005.3
02 14.02 ЮВ 4 н/о н/о +37.3 +14.0 25 +38 +38 душно 1009.5 1004.9 +29.6
05 14.02 В 3 н/о н/о +39.8 +10.2 17 +38 +38 очень
жарко
1006.6 1002.0
08 14.02 В 1 н/о н/о +41.0 +8.2 14 +39 +39 очень
жарко
1005.4 1000.8
11 14.02 СЗ 2 н/о 1/0
[]
+35.0 +15.3 31 +37 +37 очень
душно
1007.9 1003.3
14 14.02 СВ 2 н/о н/о +31.7 +23.8 63 +43 +43 опасность
перегрева
1009.5 1004.9 +41.7
17 14.02 СВ 3 н/о н/о +30.4 +25.5 75 +45 +45 опасность
перегрева
1009.1 1004.5
20 14.02 СВ 3 н/о 3/0
[]
+29.6 +26.8 85 +46 +46 опасность
перегрева
1010.1 1005.5
23 14.02 С 3 н/о н/о +31.8 +25.6 70 +47 +47 опасность
перегрева
1011.7 1007.1
02 15.02 СВ 4 н/о 8/8 300 м
[]
+36.1 +22.6 46 +45 +45 опасность
перегрева
1011.4 1006.8 +29.3
05 15.02 С 4 н/о {туман} 1/1 1500 м
[]
+36.8 +20.6 39 +43 +43 опасность
перегрева
1008.4 1003.8 0.2
08 15.02 З 5 н/о 10/0 2000 м
[]
+29.4 +20.5 59 +36 +36 очень
душно
1008.7 1004.1
11 15.02 С 2 н/о 4/0
[]
+29.3 +20.7 60 +36 +36 очень
душно
1011.0 1006.4
14 15.02 ЮВ 3 н/о 10/10 1500 м
[]
+28.9 +21.4 64 +37 +37 очень
душно
1012.6 1008.0 +38.9
17 15.02 ЮЗ 2 н/о 9/0
[]
+28.6 +21.4 65 +36 +36 очень
душно
1010.4 1005.8
20 15.02 В 2 н/о н/о +26.0 +21.7 77 +33 +33 очень
душно
1011.3 1006.7
23 15.02 С 2 н/о н/о +30.9 +21.9 59 +40 +40 очень
душно
1012.5 1007.9 0.2
02 16.02 С 3 н/о н/о +35.4 +19.3 39 +41 +41 опасность
перегрева
1011.3 1006.7 +25.4
05 16.02 СВ 2 н/о н/о +38.9 +15.3 25 +40 +40 очень
душно
1007.9 1003.3
08 16.02 С 5 н/о 1/0
[]
+35.7 +18.7 37 +40 +40 очень
душно
1007.0 1002.4
11 16.02 С 3 н/о н/о +30.7 +20.6 55 +38 +38 очень
душно
1009.3 1004.7
14 16.02 СВ 3 н/о н/о +29.2 +24.3 75 +41 +41 опасность
перегрева
1010.2 1005.6 +39.9
17 16.02 штиль 0 н/о н/о +27.1 +24.0 83 +37 +37 очень
душно
1009.1 1004.5
20 16.02 штиль 0 н/о н/о +25.9 +23.9 89 +36 +36 очень
душно
1009.7 1005.1
23 16.02 С 3 н/о н/о +30.3 +24.4 71 +43 +43 опасность
перегрева
1011.5 1006.9
02 17.02 С 2 н/о н/о +35.8 +18.4 36 +40 +40 очень
душно
1010.6 1006.0 +25.6
05 17.02 З 5 н/о 10/10 300 м
[]
+32.7 +18.5 43 +37 +37 очень
душно
1007.6 1003.0
08 17.02 СЗ 5 н/о 1/0
[]
+30.5 +16.1 42 +34 +34 очень
душно
1006.4 1001.8
11 17.02 штиль 0 н/о н/о +28.7 +21.0 63 +36 +36 очень
душно
1008.0 1003.4
14 17.02 СВ 2 н/о н/о +28.2 +21.7 68 +36 +36 очень
душно
1009.3 1004.7 +38.1
17 17.02 С 1 н/о н/о +27.1 +21.8 73 +35 +35 очень
душно
1007.9 1003.3
20 17.02 штиль 0 н/о н/о +26.6 +22.0 76 +34 +34 очень
душно
1009.0 1004.4
23 17.02 СЗ 2 н/о н/о +30.1 +23.3 67 +41 +41 опасность
перегрева
1011.1 1006.5
02 18.02 ЮЗ 3 н/о н/о +36.0 +21.1 42 +43 +43 опасность
перегрева
1009.8 1005.2 +26.1
05 18.02 З 4 н/о 1/0
[]
+38.7 +16.9 28 +41 +41 опасность
перегрева
1006.3 1001.7

 

Местоположение метеостанции Аэропорт Макартур Ривер Майн (Северная территория, Австралия): широта -16.43 долгота 136.07 высота над уровнем моря 41 м.

В архиве по умолчанию представлена погода в Аэропорту Макартур Ривер Майн за последнюю неделю. Архивные данные за месяц целиком и за предыдущие месяцы, начиная с января 2011 года, Вы можете получить, выбрав интересующий диапазон дат из раскрывающегося списка и нажав кнопку "Ввод!".


*Определитесь, кто Вы:
робот инопланетянин человек

Внимание! Время в таблицах - всемирное. Для получения местного времени необходимо прибавить поправку, которая равна 9.5 ч.

Смотрите также архив погоды в соседних городах и на ближайших метеорологических станциях:

Погода в Борролооле (Северная территория, Австралия) (46 км)
Погода на Острове Центр (Северная территория, Австралия) (109 км)
Погода в Аэропорту Грут-Айленд (Северная территория, Австралия) (276 км)
Погода в Дейли Уотерс (Северная территория, Австралия) (289 км)
Погода на Острове Северо-восточный (Северная территория, Австралия) (323 км)
Погода на Острове Морнингтон (Квинсленд, Австралия) (332 км)
Погода в Булман Уимол (Северная территория, Австралия) (359 км)
Погода на Руднике Century Mine (Квинсленд, Австралия) (380 км)
Погода в Беркетауне (Квинсленд, Австралия) (396 км)
Погода в Теннант-Крике (Северная территория, Австралия) (408 км)

Пояснения к столбцам:

Ветер - указаны скорость ветра в м/с - средняя за 10 мин, порывы в срок и между сроками (в фигурных скобках) и направление, откуда дует ветер: С - северный, СВ - северо-восточный, В - восточный, ЮВ - юго-восточный, Ю - южный, ЮЗ - юго-западный, З - западный, СЗ - северо-западный.
Видимость - горизонтальная дальность видимости в метрах или километрах. При видимости от 1 до 10 км при отсутствии осадков обычно наблюдается дымка, при ухудшении видимости до 1 км и менее - туман. В сухую погоду видимость может ухудшаться дымом, пылью или мглою.
Явления - указаны атмосферные явления, наблюдавшиеся в срок или в последний час перед сроком; фигурными скобками обозначены явления, наблюдавшиеся между сроками (за 1-3 часа до срока); квадратными скобками обозначены град или гололедные отложения с указанием их диаметра в мм.
Облачность - указаны через наклонную черту общая и нижняя облачность в баллах и высота нижней границы облаков в метрах; квадратными скобками обозначены формы облаков: Ci - перистые, Cs - перисто-слоистые, Cc - перисто-кучевые, Ac - высококучевые, As - высокослоистые, Sc - слоисто-кучевые, Ns - слоисто-дождевые, Cu - кучевые, Cb - кучево-дождевые. Подробнее классификацию облаков см. в Атласе облаков (PDF).
T - Температура воздуха - температура, измеренная на высоте 2 м над землей.
Td - Температура точки росы - температура, при понижении до которой содержащийся в воздухе водяной пар достигнет насыщения.
f - Относительная влажность воздуха - влажноcть воздуха, измеренная на высоте 2 м над землей.
Te - Эффективная температура - температура, которую ощущает одетый по сезону человек в тени. Характеристика душности погоды. При расчете учитывается влияние влажности воздуха и скорости ветра на теплоощущения человека.
Tes - Эффективная температура на солнце - температура, которую ощущает человек, с поправкой на солнечный нагрев. Характеристика знойности погоды. Зависит от высоты солнца над горизонтом, облачности и скорости ветра. Ночью, в пасмурную погоду, а также при ветре 12 м/с и более поправка равна нулю.
P - Атмосферное давление - приведенное к уровню моря атмосферное давление.
Po - Атмосферное давление - измеренное на уровне метеостанции атмосферное давление.
Tmin - Минимальная температура - минимум температуры воздуха на высоте 2 м над землей.
Tmax - Максимальная температура - максимум температуры воздуха на высоте 2 м над землей.
R - Количество осадков - Количество выпавших осадков за период времени, мм. При наведении курсора мыши на число - период времени, за который выпало указанное количество осадков.
R24 - Количество осадков - Количество выпавших осадков за 24 часа, мм.
S - Снежный покров - Высота снежного покрова, см. При наведении курсора мыши на число - состояние снежного покрова и степень покрытия местности в баллах.